This demonstration page uses our WeatherBlox Daily Observations layout. Learn more.

Left ArrowRight Arrow

41.12389, -100.76542

Hourly Observations for March 12, 2021

Temp ( °F °C ) Dew Point ( °F °C ) Humidity (%) Winds ( mph kmh ) Pressure ( in mb ) Visibility ( mi km ) Precip ( " mm )
12:53 am 00:53 Mostly Cloudy 32 0 23 -5 69 69 E 7 11 30.30 1026 10 16 0.00 0.00
1:53 am 01:53 Mostly Cloudy 34 1.1 24 -4.4 67 67 ESE 5 7 30.30 1026 10 16 0.00 0.00
2:53 am 02:53 Cloudy 33 0.6 24 -4.4 70 70 E 6 9 30.30 1026 10 16 0.00 0.00
3:53 am 03:53 Mostly Cloudy 32 0 24 -4.4 73 73 E 6 9 30.30 1026 10 16 0.00 0.00
4:53 am 04:53 Cloudy 34 1.1 25 -3.9 70 70 E 5 7 30.31 1026 10 16 0.00 0.00
5:53 am 05:53 Cloudy 34 1.1 26 -3.3 73 73 ESE 5 7 30.33 1027 10 16 0.00 0.00
6:53 am 06:53 Cloudy 34 1.1 26 -3.3 73 73 E 5 7 30.37 1028 10 16 0.00 0.00
7:53 am 07:53 Cloudy 38 3.3 26 -3.3 62 62 E 8 13 30.37 1028 10 16 0.00 0.00
8:53 am 08:53 Sunny 40 4.4 26 -3.3 58 58 E 8 13 30.38 1029 10 16 0.00 0.00
9:53 am 09:53 Partly Cloudy 45 7.2 27 -2.8 49 49 SE 12 19 30.38 1029 10 16 0.00 0.00
10:53 am 10:53 Mostly Cloudy 50 10 26 -3.3 39 39 SE 10 17 30.38 1029 10 16 0.00 0.00
11:53 am 11:53 Sunny 52 11.1 26 -3.3 37 37 SE 12 19 30.35 1028 10 16 0.00 0.00
12:53 pm 12:53 Sunny 56 13.3 23 -5 28 28 SE 15 24 30.35 1028 10 16 0.00 0.00
1:53 pm 13:53 Sunny 56 13.3 19 -7.2 24 24 ESE 20 31 30.32 1027 10 16 0.00 0.00
2:53 pm 14:53 Sunny 56 13.3 24 -4.4 29 29 E 21 33 30.29 1026 10 16 0.00 0.00
3:53 pm 15:53 Mostly Sunny 56 13.3 24 -4.4 29 29 E 20 31 30.30 1026 10 16 0.00 0.00
4:53 pm 16:53 Mostly Cloudy 55 12.8 22 -5.6 28 28 ESE 15 24 30.29 1026 10 16 0.00 0.00
5:53 pm 17:53 Partly Cloudy 50 10 25 -3.9 38 38 ESE 10 17 30.29 1026 10 16 0.00 0.00
6:53 pm 18:53 Cloudy 48 8.9 26 -3.3 42 42 ESE 9 15 30.31 1026 10 16 0.00 0.00
7:53 pm 19:53 Cloudy 48 8.9 25 -3.9 41 41 ESE 12 19 30.32 1027 10 16 0.00 0.00
8:53 pm 20:53 Cloudy 46 7.8 26 -3.3 46 46 ESE 10 17 30.32 1027 10 16 0.00 0.00
9:23 pm 21:23 Cloudy 46 7.8 25 -3.9 44 44 ESE 10 17 30.32 1027 10 16 0.00 0.00
9:53 pm 21:53 Cloudy 46 7.8 25 -3.9 44 44 ESE 10 17 30.32 1027 10 16 0.00 0.00
10:53 pm 22:53 Cloudy 44 6.7 28 -2.2 53 53 ESE 12 19 30.33 1027 10 16 0.00 0.00
11:53 pm 23:53 Cloudy 43 6.1 30 -1.1 60 60 ESE 14 22 30.33 1027 10 16 0.00 0.00

Powered by AerisWeather